Powrót do katalogu

QIANFAN-39

AktywnyŁącznośćPO
NORAD 62240·PAYLOAD·🇨🇳 China

Wystrzelony Dec 5, 2024 z Taiyuan Satellite Launch Center

Loading…

Następne Przeloty (najbliższe 24 godziny)

TLE

ŚwieżeSource: Space-Track

Epoka: Sep 14, 2026, 22:15 UTC

1 62240U 24232D   26257.92768399  .00000379  00000-0  15419-3 0  9994
2 62240  89.0140   5.8735 0014047 249.8350 110.1332 14.25558763140735

Śledź QIANFAN-39 w czasie rzeczywistym z AllMySat

Download on the App Store